Home   Weather   Terre Haute   Past weeks

Flag for USA Past Weather in Terre Haute, Indiana, USA — Yesterday and Last 2 Weeks

Now
69 °F

Overcast.


Feels Like: 69 °F
Forecast: 48 / 66 °F
Wind: 17 mph from South

Location: Terre Haute International Airport - Hulman Field

Current Time: May 1, 2017 at 12:49:35 am

Latest Report: Apr 30, 2017 at 11:53 pm


Visibility: 10 mi

Pressure: 29.58 "Hg

Humidity: 76%

Dew Point: 61 °F

Location of Terre HauteLocation

Past Weather in Terre Haute — Graph

°F

Terre Haute Temperature Yesterday

Maximum temperature yesterday: 70 °F (at 10:53 pm)
Minimum temperature yesterday: 63 °F (at 12:53 am)
Average temperature yesterday: 66 °F

High & Low Weather Summary for the Past Weeks

 TemperatureHumidityPressure
High81 °F (Apr 19, 2:53 pm)94% (Apr 26, 6:53 pm)30.18 "Hg (Apr 26, 6:53 pm)
Low38 °F (Apr 23, 6:53 am)19% (Apr 23, 5:53 pm)29.42 "Hg (Apr 27, 3:53 am)
Average61 °F70%29.91 "Hg
* Reported Apr 15 11:53 pm — Apr 30 11:23 pm, Terre Haute, Weather by CustomWeather, © 2017

Note: Actual official high and low records may vary slightly from our data, if they occured in-between our weather recording intervals... More about our weather records

Advertising

Terre Haute Weather History for the Previous 24 Hours

Scroll right to see more
 ConditionsComfort  
Time TempWeatherWind HumidityBarometerVisibility
11:23 pm
Sun, Apr 30
70 °FOvercast.17 mph73%29.60 "Hg10 mi
10:53 pm70 °FOvercast.20 mph73%29.59 "Hg10 mi
9:53 pm69 °FPassing clouds.16 mph81%29.60 "Hg10 mi
8:53 pm69 °FPassing clouds.9 mph87%29.62 "Hg10 mi
7:53 pm69 °FScattered clouds.8 mph87%29.64 "Hg10 mi
6:53 pm69 °FMostly cloudy.9 mph84%29.67 "Hg10 mi
5:53 pm68 °FLight rain. Overcast.14 mph87%29.68 "Hg9 mi
4:53 pm68 °FBroken clouds.10 mph84%29.71 "Hg10 mi
4:21 pm67 °FBroken clouds.10 mph90%29.73 "Hg10 mi
3:53 pm67 °FPartly sunny.12 mph90%29.75 "Hg10 mi
3:17 pm67 °FLight rain. Cloudy.9 mph90%29.79 "Hg9 mi
2:53 pm66 °FPartly sunny.13 mph93%29.78 "Hg10 mi
2:06 pm65 °FLight rain. Fog.12 mph94%29.82 "Hg6 mi
1:53 pm65 °FRain. Fog.10 mph94%29.83 "Hg6 mi
1:29 pm65 °FRain. Fog.15 mph94%29.84 "Hg4 mi
1:14 pm65 °FRain. Fog.14 mph91%29.84 "Hg5 mi
12:43 pm65 °FRain. Fog.14 mph94%29.85 "Hg3 mi
12:36 pm65 °FRain. Fog.14 mph94%29.84 "Hg2 mi
11:53 am66 °FLight rain. Mostly cloudy.14 mph90%29.81 "Hg8 mi
10:53 am65 °FLight rain. Overcast.17 mph91%29.82 "Hg10 mi
9:53 am67 °FLight rain. Partly sunny.14 mph85%29.78 "Hg10 mi
8:53 am68 °FScattered clouds.15 mph84%29.75 "Hg10 mi
7:53 am64 °FLight rain. Overcast.9 mph94%29.75 "Hg9 mi
6:53 am63 °FMore clouds than sun.6 mph93%29.78 "Hg10 mi
6:32 am63 °FLow clouds.7 mph93%29.80 "Hg10 mi
5:53 am63 °FLight rain. Mostly cloudy.7 mph93%29.80 "Hg7 mi
4:53 am63 °FMostly cloudy.6 mph93%29.83 "Hg10 mi
4:01 am63 °FPartly cloudy.6 mph93%29.83 "Hg10 mi
3:43 am63 °FHeavy rain. Fog.No wind93%29.85 "Hg4 mi
2:53 am63 °FPassing clouds.7 mph93%29.85 "Hg10 mi
1:53 am63 °FPartly cloudy.5 mph93%29.87 "Hg10 mi
12:53 am63 °FPassing clouds.6 mph93%29.88 "Hg10 mi
Weather by CustomWeather, © 2017

See weather overviewHow to use our weather pages